Weather History for LEMO - November, 2012

Change the Weather History Date:

Sunday, November 11, 2012

  Actual Average Record
Temperature  
Mean Temperature 55 °F -  
Max Temperature 60 °F 63 °F 77 °F (1998)
Min Temperature 50 °F 45 °F 33 °F (2001)
Degree Days  
Heating Degree Days 10    
Growing Degree Days 5 (Base 50)    
Moisture  
Dew Point 49 °F    
Average Humidity 80    
Maximum Humidity 100    
Minimum Humidity 55    
Precipitation  
Precipitation 0.00 in - - ()
Sea Level Pressure  
Sea Level Pressure 29.88 in    
Wind  
Wind Speed 8 mph ()    
Max Wind Speed 17 mph    
Max Gust Speed -    
Visibility 6.2 miles    
Events Rain    
Averages and records for this station are not official NWS values.
T = Trace of Precipitation, MM = Missing Value Source: Averaged Metar Reports

Daily Weather History Graph

Daily Weather History Graph

Search for Another Location

Airport or City:

Trip Planner

Search our weather history database for the weather conditions in past years. The results will help you decide how hot, cold, wet, or windy it might be!

Date:

Astronomy

Nov. 11, 2012 Rise Set
Actual Time 7:57 AM CET 6:15 PM CET
Civil Twilight 7:29 AM CET 6:42 PM CET
Nautical Twilight 6:58 AM CET 7:13 PM CET
Astronomical Twilight 6:27 AM CET 7:44 PM CET
Moon 4:58 AM CET (11/11) 4:27 PM CET (11/11)
Length of Visible Light 11h 12m
Length of Day
10h 17m
Waning Crescent, 9% of the Moon is Illuminated
Nov 11
Waning Crescent
Nov 13
New
Nov 20
First Quarter
Nov 28
Full
Dec 6
Last Quarter

Hourly Weather History & Observations

Time (CET) Temp. Dew Point Humidity Pressure Visibility Wind Dir Wind Speed Gust Speed Precip Events Conditions
12:00 AM 59.0 °F 57.2 °F 94% 29.92 in 6.2 mi West 6.9 mph - N/A   Mostly Cloudy
1:00 AM 57.2 °F 57.2 °F 100% 29.89 in 6.2 mi West 8.1 mph - N/A   Mostly Cloudy
2:00 AM 59.0 °F 57.2 °F 94% 29.89 in 6.2 mi West 9.2 mph - N/A   Mostly Cloudy
3:00 AM 57.2 °F 57.2 °F 100% 29.86 in 6.2 mi West 8.1 mph - N/A   Mostly Cloudy
4:00 AM 57.2 °F 55.4 °F 94% 29.86 in - West 8.1 mph - N/A   Clear
5:00 AM 55.4 °F 50.0 °F 82% 29.83 in - NW 8.1 mph - N/A   Clear
6:00 AM 51.8 °F 50.0 °F 94% 29.83 in - WNW 6.9 mph - N/A   Clear
7:00 AM 51.8 °F 48.2 °F 88% 29.83 in - WNW 5.8 mph - N/A   Clear
8:00 AM 51.8 °F 48.2 °F 88% 29.83 in 6.2 mi WNW 8.1 mph - N/A Rain Light Rain
9:00 AM 51.8 °F 50.0 °F 94% 29.86 in 6.2 mi West 6.9 mph - N/A   Scattered Clouds
10:00 AM 53.6 °F 50.0 °F 88% 29.86 in 6.2 mi West 8.1 mph - N/A   Scattered Clouds
11:00 AM 53.6 °F 50.0 °F 88% 29.89 in 6.2 mi WNW 8.1 mph - N/A   Scattered Clouds
12:00 PM 55.4 °F 50.0 °F 82% 29.89 in 6.2 mi WNW 11.5 mph - N/A   Scattered Clouds
1:00 PM 57.2 °F 46.4 °F 67% 29.86 in 6.2 mi North 11.5 mph - N/A   Scattered Clouds
2:00 PM 57.2 °F 46.4 °F 67% 29.86 in 6.2 mi North 13.8 mph - N/A   Scattered Clouds
3:00 PM 59.0 °F 44.6 °F 59% 29.83 in 6.2 mi North 11.5 mph - N/A   Scattered Clouds
4:00 PM 60.8 °F 44.6 °F 55% 29.83 in 6.2 mi North 17.3 mph - N/A   Scattered Clouds
5:00 PM 59.0 °F 44.6 °F 59% 29.86 in 6.2 mi North 17.3 mph - N/A   Scattered Clouds
6:00 PM 57.2 °F 44.6 °F 63% 29.89 in 6.2 mi North 17.3 mph - N/A   Scattered Clouds
7:00 PM 51.8 °F 44.6 °F 76% 29.89 in 6.2 mi North 17.3 mph - N/A   Scattered Clouds
8:00 PM 51.8 °F 44.6 °F 76% 29.92 in 6.2 mi North 5.8 mph - N/A   Scattered Clouds
9:00 PM 60.8 °F 44.6 °F 55% 29.95 in 6.2 mi North 5.8 mph - N/A   Partly Cloudy
10:00 PM 50.0 °F 44.6 °F 82% 29.95 in 6.2 mi North 5.8 mph - N/A   Partly Cloudy
11:00 PM 51.8 °F 42.8 °F 71% 29.98 in 6.2 mi North 10.4 mph - N/A   Partly Cloudy